QPF
0.00 0.01 0.02 0.02 0.01 0.01 0.01 0.01 0.01 0.01 0.02 0.02 0.01 0.02 0.02 0.03 0.03 0.02 0.01 0.01 0.01 0.02 0.02 0.02 0.02 0.02 0.02 0.02 0.01 0.01 0.01 0.01 0.01 0.01 0.01 0.01 0.01 0.01 0.01 0.01 0.00 0.00 0.01
0.00 0.01 0.01 0.01 0.01 0.01 0.01 0.01 0.01 0.01 0.01 0.02 0.01 0.01 0.01 0.02 0.02 0.02 0.02 0.02 0.02 0.02 0.02 0.02 0.02 0.02 0.01 0.01 0.01 0.00 0.00 0.00 0.00 0.00 0.00 0.01 0.01 0.01 0.01 0.01 0.00 0.01 0.01
0.01 0.01 0.01 0.01 0.01 0.02 0.01 0.01 0.01 0.01 0.01 0.01 0.02 0.02 0.01 0.01 0.01 0.01 0.02 0.02 0.02 0.02 0.02 0.01 0.01 0.01 0.01 0.01 0.01 0.00 0.00 0.00 0.00 0.00 0.00 0.00 0.00 0.01 0.01 0.01 0.01 0.01 0.01
0.01 0.01 0.01 0.01 0.02 0.02 0.01 0.01 0.01 0.01 0.01 0.01 0.01 0.02 0.01 0.01 0.01 0.01 0.01 0.01 0.01 0.01 0.01 0.01 0.01 0.01 0.01 0.01 0.01 0.01 0.00 0.00 0.00 0.00 0.00 0.00 0.00 0.01 0.01 0.01 0.01 0.02 0.02
0.01 0.01 0.02 0.01 0.01 0.01 0.01 0.01 0.01 0.01 0.01 0.01 0.01 0.01 0.01 0.01 0.01 0.00 0.00 0.01 0.01 0.00 0.00 0.01 0.01 0.01 0.01 0.01 0.01 0.02 0.02 0.01 0.00 0.00 0.00 0.00 0.00 0.01 0.01 0.01 0.01 0.01 0.02
0.01 0.02 0.02 0.02 0.02 0.02 0.01 0.01 0.01 0.01 0.01 0.01 0.01 0.01 0.02 0.03 0.02 0.01 0.00 0.01 0.01 0.01 0.01 0.00 0.00 0.01 0.01 0.01 0.01 0.02 0.02 0.01 0.00 0.00 0.00 0.00 0.00 0.00 0.01 0.01 0.01 0.01 0.01
0.01 0.01 0.02 0.02 0.02 0.02 0.01 0.01 0.01 0.02 0.02 0.02 0.02 0.02 0.02 0.02 0.02 0.02 0.02 0.01 0.02 0.01 0.01 0.01 0.01 0.01 0.01 0.01 0.01 0.02 0.01 0.01 0.00 0.00 0.00 0.00 0.00 0.00 0.01 0.01 0.01 0.01 0.01
0.01 0.01 0.02 0.03 0.02 0.01 0.01 0.01 0.01 0.01 0.01 0.02 0.02 0.02 0.02 0.01 0.01 0.02 0.03 0.03 0.03 0.02 0.01 0.01 0.01 0.01 0.01 0.01 0.01 0.01 0.01 0.01 0.00 0.00 0.00 0.00 0.00 0.01 0.01 0.01 0.01 0.01 0.01
0.01 0.01 0.02 0.02 0.02 0.01 0.01 0.01 0.01 0.00 0.01 0.01 0.02 0.02 0.02 0.02 0.02 0.02 0.01 0.01 0.01 0.00 0.00 0.00 0.00 0.01 0.01 0.00 0.00 0.00 0.00 0.00 0.00 0.00 0.00 0.00 0.00 0.01 0.02 0.01 0.01 0.01 0.01
0.02 0.02 0.03 0.02 0.02 0.01 0.01 0.01 0.01 0.01 0.01 0.01 0.01 0.01 0.02 0.02 0.02 0.02 0.01 0.01 0.01 0.00 0.00 0.00 0.00 0.00 0.00 0.00 0.00 0.00 0.00 0.00 0.00 0.00 0.00 0.00 0.00 0.01 0.01 0.01 0.01 0.01 0.02
0.01 0.02 0.03 0.03 0.03 0.02 0.03 0.02 0.02 0.01 0.01 0.01 0.01 0.01 0.01 0.01 0.01 0.02 0.01 0.01 0.01 0.01 0.01 0.00 0.00 0.00 0.00 0.00 0.00 0.00 0.00 0.00 0.00 0.00 0.00 0.00 0.00 0.01 0.01 0.02 0.02 0.02 0.03
0.00 0.01 0.02 0.03 0.03 0.02 0.02 0.02 0.02 0.03 0.02 0.02 0.01 0.01 0.01 0.01 0.01 0.01 0.01 0.01 0.01 0.01 0.01 0.01 0.00 0.00 0.00 0.00 0.00 0.00 0.00 0.00 0.00 0.00 0.00 0.00 0.00 0.01 0.01 0.03 0.03 0.02 0.03
0.01 0.01 0.01 0.02 0.03 0.03 0.02 0.01 0.01 0.02 0.02 0.01 0.01 0.01 0.01 0.01 0.01 0.01 0.01 0.01 0.01 0.01 0.01 0.01 0.00 0.00 0.00 0.00 0.00 0.00 0.00 0.00 0.00 0.00 0.00 0.00 0.00 0.01 0.02 0.03 0.03 0.03 0.03
0.01 0.01 0.01 0.01 0.02 0.02 0.03 0.02 0.01 0.01 0.01 0.01 0.01 0.01 0.01 0.01 0.01 0.01 0.01 0.00 0.00 0.01 0.01 0.01 0.01 0.00 0.00 0.00 0.00 0.01 0.01 0.01 0.01 0.01 0.01 0.01 0.00 0.01 0.02 0.02 0.02 0.03 0.04
0.01 0.01 0.01 0.01 0.01 0.01 0.02 0.03 0.02 0.01 0.00 0.00 0.00 0.00 0.00 0.01 0.01 0.01 0.01 0.00 0.00 0.00 0.01 0.01 0.01 0.01 0.01 0.02 0.01 0.01 0.01 0.01 0.01 0.01 0.01 0.01 0.00 0.00 0.01 0.02 0.03 0.04 0.05
0.00 0.00 0.01 0.01 0.01 0.01 0.01 0.02 0.02 0.02 0.01 0.01 0.00 0.00 0.00 0.00 0.00 0.01 0.01 0.00 0.00 0.00 0.00 0.00 0.01 0.01 0.02 0.02 0.02 0.01 0.01 0.01 0.01 0.01 0.00 0.00 0.00 0.00 0.01 0.02 0.04 0.06 0.06
0.00 0.01 0.01 0.01 0.01 0.01 0.01 0.01 0.02 0.03 0.03 0.02 0.01 0.00 0.00 0.00 0.00 0.00 0.01 0.00 0.01 0.01 0.01 0.02 0.02 0.02 0.02 0.01 0.01 0.01 0.01 0.01 0.01 0.00 0.00 0.00 0.00 0.00 0.00 0.00 0.02 0.04 0.05
0.01 0.01 0.01 0.01 0.02 0.02 0.02 0.02 0.02 0.03 0.03 0.03 0.03 0.02 0.01 0.00 0.00 0.01 0.01 0.01 0.01 0.01 0.01 0.01 0.02 0.02 0.02 0.01 0.01 0.01 0.01 0.01 0.01 0.01 0.01 0.00 0.00 0.00 0.00 0.00 0.01 0.02 0.04
0.01 0.01 0.01 0.01 0.01 0.02 0.03 0.03 0.03 0.04 0.03 0.02 0.02 0.02 0.02 0.01 0.01 0.01 0.01 0.01 0.01 0.01 0.01 0.01 0.01 0.01 0.01 0.01 0.01 0.01 0.01 0.01 0.01 0.01 0.01 0.01 0.00 0.00 0.00 0.01 0.01 0.01 0.02
0.01 0.01 0.01 0.01 0.01 0.02 0.02 0.03 0.03 0.03 0.03 0.03 0.03 0.02 0.02 0.02 0.01 0.01 0.01 0.01 0.01 0.01 0.01 0.01 0.01 0.01 0.01 0.01 0.01 0.01 0.00 0.00 0.00 0.00 0.00 0.00 0.00 0.00 0.00 0.01 0.01 0.01 0.01
0.01 0.01 0.00 0.00 0.00 0.00 0.01 0.01 0.01 0.02 0.03 0.02 0.03 0.02 0.02 0.02 0.02 0.02 0.01 0.01 0.01 0.01 0.02 0.01 0.01 0.01 0.01 0.00 0.01 0.00 0.00 0.00 0.00 0.00 0.00 0.00 0.00 0.00 0.00 0.00 0.01 0.01 0.01
0.01 0.01 0.00 0.00 0.00 0.00 0.00 0.01 0.01 0.02 0.01 0.01 0.01 0.01 0.01 0.02 0.02 0.02 0.02 0.02 0.02 0.02 0.02 0.02 0.02 0.01 0.01 0.00 0.00 0.00 0.00 0.00 0.00 0.00 0.00 0.00 0.00 0.00 0.00 0.00 0.00 0.00 0.00
0.01 0.01 0.00 0.00 0.00 0.00 0.00 0.00 0.00 0.00 0.00 0.00 0.00 0.00 0.00 0.01 0.02 0.02 0.02 0.02 0.02 0.02 0.02 0.02 0.02 0.02 0.01 0.01 0.01 0.01 0.01 0.00 0.00 0.00 0.00 0.00 0.00 0.00 0.00 0.00 0.00 0.00 0.00
0.01 0.00 0.00 0.00 0.00 0.00 0.00 0.00 0.00 0.00 0.00 0.00 0.00 0.00 0.00 0.00 0.01 0.01 0.01 0.01 0.02 0.03 0.02 0.02 0.02 0.02 0.02 0.02 0.02 0.01 0.01 0.01 0.00 0.00 0.00 0.00 0.00 0.00 0.00 0.00 0.00 0.00 0.00
0.00 0.00 0.00 0.00 0.00 0.00 0.00 0.00 0.00 0.00 0.00 0.00 0.00 0.00 0.00 0.00 0.00 0.01 0.01 0.01 0.01 0.01 0.02 0.02 0.02 0.02 0.02 0.03 0.03 0.02 0.02 0.01 0.01 0.01 0.00 0.00 0.00 0.00 0.00 0.00 0.00 0.00 0.00
0.00 0.00 0.00 0.00 0.00 0.00 0.00 0.00 0.00 0.00 0.00 0.00 0.00 0.00 0.00 0.00 0.00 0.00 0.00 0.01 0.01 0.01 0.01 0.02 0.02 0.02 0.02 0.03 0.04 0.04 0.03 0.02 0.02 0.01 0.01 0.00 0.00 0.00 0.00 0.00 0.00 0.00 0.00
MSLP
1011.02 1010.77 1010.72 1010.88 1011.19 1011.59 1011.99 1012.33 1012.59 1012.74 1012.83 1012.88 1012.94 1013.06 1013.25 1013.51 1013.81 1014.11 1014.38 1014.60 1014.76 1014.87 1014.96 1015.04 1015.15 1015.28 1015.45 1015.62 1015.78 1015.91 1016.00 1016.03 1016.03 1016.00 1015.98 1015.96 1015.96 1015.99 1016.03 1016.07 1016.10 1016.12 1016.11
1010.68 1010.49 1010.50 1010.73 1011.11 1011.57 1012.03 1012.42 1012.71 1012.90 1013.00 1013.07 1013.16 1013.29 1013.51 1013.78 1014.10 1014.41 1014.69 1014.92 1015.07 1015.17 1015.24 1015.31 1015.40 1015.51 1015.65 1015.80 1015.93 1016.03 1016.09 1016.10 1016.08 1016.03 1015.99 1015.96 1015.95 1015.96 1015.99 1016.02 1016.04 1016.05 1016.05
1010.31 1010.18 1010.27 1010.56 1011.01 1011.54 1012.07 1012.52 1012.86 1013.09 1013.23 1013.33 1013.44 1013.60 1013.82 1014.10 1014.42 1014.73 1014.99 1015.20 1015.34 1015.42 1015.47 1015.52 1015.59 1015.69 1015.81 1015.94 1016.06 1016.14 1016.18 1016.18 1016.14 1016.09 1016.03 1015.99 1015.96 1015.96 1015.97 1015.99 1016.00 1016.00 1016.01
1009.98 1009.93 1010.08 1010.45 1010.96 1011.55 1012.13 1012.64 1013.04 1013.31 1013.50 1013.63 1013.77 1013.94 1014.17 1014.44 1014.73 1015.01 1015.25 1015.43 1015.54 1015.61 1015.65 1015.70 1015.76 1015.86 1015.97 1016.10 1016.20 1016.28 1016.31 1016.30 1016.25 1016.19 1016.12 1016.07 1016.03 1016.01 1016.00 1016.01 1016.01 1016.02 1016.02
1009.80 1009.80 1010.02 1010.44 1011.00 1011.63 1012.25 1012.80 1013.23 1013.54 1013.77 1013.94 1014.10 1014.28 1014.50 1014.76 1015.02 1015.27 1015.47 1015.62 1015.71 1015.77 1015.81 1015.86 1015.93 1016.04 1016.16 1016.29 1016.39 1016.47 1016.49 1016.48 1016.43 1016.36 1016.29 1016.22 1016.17 1016.14 1016.12 1016.11 1016.10 1016.11 1016.12
1009.79 1009.86 1010.13 1010.59 1011.17 1011.81 1012.44 1012.99 1013.44 1013.78 1014.03 1014.22 1014.41 1014.61 1014.83 1015.06 1015.30 1015.51 1015.68 1015.80 1015.88 1015.94 1015.99 1016.06 1016.15 1016.28 1016.41 1016.54 1016.65 1016.72 1016.75 1016.73 1016.68 1016.61 1016.54 1016.46 1016.40 1016.36 1016.33 1016.31 1016.30 1016.30 1016.32
1009.98 1010.11 1010.42 1010.89 1011.47 1012.10 1012.70 1013.23 1013.67 1014.01 1014.28 1014.50 1014.71 1014.92 1015.15 1015.38 1015.60 1015.78 1015.93 1016.03 1016.11 1016.17 1016.24 1016.33 1016.45 1016.60 1016.74 1016.88 1016.99 1017.06 1017.08 1017.06 1017.00 1016.93 1016.86 1016.79 1016.73 1016.68 1016.64 1016.61 1016.60 1016.60 1016.61
1010.32 1010.52 1010.86 1011.34 1011.89 1012.47 1013.03 1013.52 1013.93 1014.26 1014.54 1014.79 1015.03 1015.27 1015.51 1015.74 1015.95 1016.12 1016.25 1016.34 1016.42 1016.49 1016.58 1016.70 1016.84 1017.00 1017.16 1017.29 1017.39 1017.45 1017.46 1017.44 1017.38 1017.32 1017.25 1017.18 1017.12 1017.08 1017.04 1017.01 1016.99 1016.98 1016.99
1010.76 1011.01 1011.39 1011.86 1012.39 1012.91 1013.41 1013.85 1014.23 1014.55 1014.84 1015.12 1015.40 1015.68 1015.95 1016.19 1016.40 1016.56 1016.67 1016.76 1016.83 1016.91 1017.01 1017.14 1017.30 1017.47 1017.63 1017.76 1017.85 1017.89 1017.90 1017.86 1017.81 1017.75 1017.69 1017.63 1017.59 1017.54 1017.51 1017.47 1017.45 1017.43 1017.43
1011.20 1011.52 1011.93 1012.41 1012.90 1013.39 1013.83 1014.22 1014.57 1014.89 1015.20 1015.52 1015.84 1016.16 1016.46 1016.72 1016.93 1017.09 1017.19 1017.26 1017.33 1017.41 1017.51 1017.64 1017.81 1017.97 1018.13 1018.25 1018.33 1018.37 1018.36 1018.32 1018.27 1018.22 1018.17 1018.13 1018.09 1018.06 1018.02 1017.98 1017.94 1017.91 1017.90
1011.58 1011.97 1012.43 1012.92 1013.40 1013.85 1014.26 1014.62 1014.95 1015.28 1015.61 1015.97 1016.34 1016.70 1017.04 1017.32 1017.54 1017.68 1017.77 1017.83 1017.88 1017.94 1018.04 1018.17 1018.33 1018.49 1018.64 1018.76 1018.83 1018.86 1018.85 1018.82 1018.78 1018.73 1018.70 1018.66 1018.63 1018.59 1018.55 1018.50 1018.45 1018.40 1018.36
1011.88 1012.35 1012.86 1013.37 1013.86 1014.29 1014.68 1015.02 1015.36 1015.69 1016.06 1016.45 1016.86 1017.27 1017.63 1017.93 1018.15 1018.29 1018.36 1018.40 1018.43 1018.48 1018.56 1018.69 1018.84 1019.00 1019.15 1019.27 1019.35 1019.38 1019.38 1019.36 1019.32 1019.29 1019.25 1019.22 1019.18 1019.14 1019.08 1019.01 1018.94 1018.87 1018.80
1012.08 1012.63 1013.20 1013.75 1014.25 1014.69 1015.07 1015.42 1015.76 1016.11 1016.50 1016.92 1017.37 1017.80 1018.18 1018.49 1018.72 1018.85 1018.91 1018.93 1018.95 1018.98 1019.06 1019.18 1019.33 1019.50 1019.66 1019.79 1019.89 1019.94 1019.95 1019.94 1019.92 1019.88 1019.85 1019.80 1019.75 1019.69 1019.61 1019.51 1019.41 1019.31 1019.22
1012.23 1012.84 1013.46 1014.05 1014.58 1015.04 1015.43 1015.78 1016.13 1016.50 1016.90 1017.34 1017.80 1018.24 1018.63 1018.95 1019.18 1019.31 1019.37 1019.39 1019.41 1019.44 1019.52 1019.65 1019.81 1020.00 1020.18 1020.33 1020.45 1020.53 1020.57 1020.57 1020.55 1020.52 1020.47 1020.40 1020.32 1020.23 1020.11 1019.99 1019.86 1019.74 1019.62
1012.34 1013.00 1013.67 1014.30 1014.85 1015.33 1015.74 1016.10 1016.46 1016.83 1017.23 1017.67 1018.13 1018.57 1018.96 1019.28 1019.51 1019.66 1019.73 1019.77 1019.80 1019.86 1019.96 1020.10 1020.29 1020.49 1020.70 1020.89 1021.04 1021.15 1021.21 1021.23 1021.22 1021.17 1021.10 1021.00 1020.89 1020.75 1020.61 1020.45 1020.30 1020.14 1020.00
1012.43 1013.13 1013.83 1014.49 1015.07 1015.57 1015.99 1016.37 1016.73 1017.09 1017.49 1017.91 1018.34 1018.77 1019.15 1019.48 1019.72 1019.89 1020.01 1020.08 1020.15 1020.24 1020.37 1020.55 1020.76 1021.00 1021.24 1021.45 1021.64 1021.77 1021.85 1021.89 1021.87 1021.81 1021.71 1021.58 1021.43 1021.26 1021.08 1020.90 1020.72 1020.54 1020.38
1012.50 1013.21 1013.92 1014.60 1015.21 1015.73 1016.18 1016.58 1016.94 1017.30 1017.68 1018.07 1018.48 1018.88 1019.25 1019.58 1019.85 1020.06 1020.21 1020.35 1020.47 1020.61 1020.78 1020.99 1021.23 1021.49 1021.75 1021.99 1022.20 1022.35 1022.45 1022.49 1022.47 1022.39 1022.27 1022.11 1021.92 1021.72 1021.52 1021.32 1021.12 1020.93 1020.75
1012.49 1013.20 1013.92 1014.61 1015.25 1015.81 1016.30 1016.72 1017.10 1017.46 1017.82 1018.19 1018.56 1018.94 1019.30 1019.63 1019.93 1020.18 1020.40 1020.59 1020.77 1020.97 1021.18 1021.42 1021.68 1021.95 1022.22 1022.48 1022.69 1022.85 1022.96 1022.99 1022.97 1022.88 1022.74 1022.56 1022.35 1022.13 1021.92 1021.70 1021.50 1021.31 1021.11
1012.34 1013.04 1013.76 1014.48 1015.15 1015.76 1016.31 1016.78 1017.20 1017.58 1017.93 1018.29 1018.64 1018.99 1019.34 1019.68 1020.00 1020.29 1020.57 1020.82 1021.06 1021.30 1021.55 1021.81 1022.08 1022.35 1022.62 1022.86 1023.07 1023.24 1023.34 1023.38 1023.35 1023.26 1023.11 1022.92 1022.70 1022.48 1022.26 1022.04 1021.84 1021.64 1021.44
1012.02 1012.69 1013.42 1014.16 1014.88 1015.57 1016.19 1016.74 1017.22 1017.64 1018.02 1018.37 1018.71 1019.05 1019.39 1019.74 1020.08 1020.41 1020.72 1021.02 1021.31 1021.58 1021.85 1022.12 1022.38 1022.65 1022.90 1023.14 1023.34 1023.50 1023.60 1023.64 1023.61 1023.52 1023.37 1023.18 1022.97 1022.75 1022.53 1022.32 1022.12 1021.92 1021.70
1011.50 1012.15 1012.87 1013.64 1014.44 1015.21 1015.93 1016.58 1017.15 1017.63 1018.06 1018.43 1018.78 1019.11 1019.45 1019.80 1020.15 1020.51 1020.86 1021.19 1021.50 1021.79 1022.07 1022.33 1022.59 1022.83 1023.07 1023.29 1023.49 1023.64 1023.75 1023.80 1023.78 1023.70 1023.56 1023.38 1023.17 1022.95 1022.74 1022.53 1022.32 1022.11 1021.88
1010.82 1011.43 1012.15 1012.97 1013.83 1014.70 1015.53 1016.29 1016.96 1017.54 1018.02 1018.43 1018.80 1019.14 1019.49 1019.84 1020.20 1020.57 1020.93 1021.28 1021.61 1021.91 1022.18 1022.44 1022.68 1022.91 1023.13 1023.35 1023.54 1023.70 1023.82 1023.89 1023.89 1023.82 1023.70 1023.53 1023.33 1023.11 1022.89 1022.66 1022.44 1022.21 1021.96
1010.07 1010.63 1011.35 1012.19 1013.12 1014.08 1015.02 1015.89 1016.67 1017.33 1017.89 1018.35 1018.74 1019.11 1019.46 1019.82 1020.18 1020.56 1020.93 1021.28 1021.61 1021.91 1022.18 1022.43 1022.67 1022.89 1023.12 1023.34 1023.54 1023.72 1023.87 1023.96 1023.98 1023.94 1023.83 1023.67 1023.47 1023.24 1022.99 1022.74 1022.49 1022.22 1021.93
1009.36 1009.88 1010.57 1011.43 1012.41 1013.44 1014.46 1015.42 1016.28 1017.02 1017.64 1018.15 1018.58 1018.97 1019.34 1019.70 1020.08 1020.46 1020.83 1021.19 1021.52 1021.82 1022.09 1022.34 1022.58 1022.81 1023.05 1023.29 1023.52 1023.74 1023.92 1024.04 1024.10 1024.08 1023.99 1023.83 1023.61 1023.35 1023.07 1022.78 1022.47 1022.15 1021.81
1008.84 1009.30 1009.96 1010.81 1011.80 1012.86 1013.92 1014.93 1015.84 1016.63 1017.29 1017.84 1018.30 1018.72 1019.11 1019.50 1019.89 1020.28 1020.66 1021.03 1021.36 1021.66 1021.94 1022.19 1022.44 1022.69 1022.95 1023.22 1023.50 1023.75 1023.98 1024.14 1024.24 1024.24 1024.17 1024.00 1023.77 1023.48 1023.15 1022.79 1022.41 1022.02 1021.62
1008.62 1009.01 1009.62 1010.43 1011.39 1012.43 1013.49 1014.49 1015.41 1016.20 1016.88 1017.45 1017.94 1018.38 1018.80 1019.21 1019.63 1020.04 1020.44 1020.82 1021.16 1021.47 1021.74 1022.01 1022.27 1022.54 1022.83 1023.13 1023.45 1023.75 1024.02 1024.24 1024.37 1024.40 1024.34 1024.17 1023.92 1023.59 1023.21 1022.78 1022.34 1021.87 1021.40
Thickness
5749 5751 5752 5751 5750 5750 5749 5749 5749 5748 5748 5747 5746 5745 5744 5744 5743 5742 5742 5741 5741 5740 5740 5739 5739 5738 5737 5737 5736 5735 5734 5733 5732 5732 5731 5730 5729 5729 5728 5727 5726 5725 5724
5750 5750 5749 5748 5747 5747 5746 5746 5745 5745 5744 5744 5743 5742 5741 5740 5739 5739 5738 5738 5737 5737 5736 5736 5735 5734 5734 5733 5732 5731 5730 5729 5729 5728 5727 5726 5726 5725 5724 5723 5722 5721 5720
5748 5747 5746 5745 5744 5743 5742 5741 5741 5741 5741 5740 5739 5738 5737 5736 5736 5735 5735 5734 5734 5733 5732 5732 5731 5730 5729 5729 5728 5727 5726 5725 5724 5724 5723 5722 5722 5721 5720 5719 5718 5717 5717
5744 5743 5742 5741 5740 5739 5738 5737 5737 5736 5736 5736 5735 5734 5733 5732 5732 5731 5731 5730 5729 5728 5728 5727 5726 5726 5725 5724 5723 5723 5722 5721 5720 5719 5719 5718 5718 5717 5717 5716 5715 5714 5713
5739 5739 5738 5737 5736 5735 5734 5733 5732 5732 5732 5731 5730 5730 5729 5728 5727 5727 5726 5725 5724 5724 5723 5722 5722 5721 5720 5720 5719 5718 5717 5716 5715 5715 5714 5714 5714 5713 5713 5712 5711 5710 5709
5734 5734 5733 5732 5731 5730 5729 5729 5728 5727 5727 5726 5725 5725 5724 5723 5722 5722 5721 5720 5720 5719 5718 5718 5717 5716 5716 5715 5714 5713 5713 5712 5711 5710 5710 5709 5709 5709 5709 5707 5706 5705 5705
5728 5728 5728 5727 5726 5725 5724 5724 5723 5722 5721 5721 5720 5720 5719 5718 5717 5716 5716 5715 5715 5714 5713 5713 5712 5712 5711 5710 5709 5709 5708 5707 5706 5706 5705 5705 5705 5705 5704 5703 5702 5701 5700
5722 5722 5722 5722 5721 5720 5719 5718 5718 5717 5716 5715 5715 5714 5713 5713 5712 5711 5710 5710 5709 5708 5708 5708 5707 5707 5706 5705 5704 5704 5703 5702 5701 5701 5700 5700 5700 5700 5700 5699 5698 5697 5696
5716 5716 5716 5715 5715 5714 5713 5712 5712 5711 5710 5709 5709 5708 5707 5707 5706 5705 5705 5704 5704 5703 5702 5702 5702 5701 5701 5700 5699 5699 5698 5697 5696 5695 5695 5695 5695 5695 5695 5694 5693 5692 5692
5708 5709 5709 5708 5708 5708 5707 5706 5706 5705 5704 5703 5703 5702 5701 5701 5700 5700 5699 5699 5698 5698 5697 5696 5696 5696 5695 5694 5694 5693 5692 5691 5691 5690 5690 5690 5690 5690 5690 5689 5688 5688 5687
5699 5700 5701 5702 5701 5701 5701 5700 5699 5699 5698 5697 5696 5696 5695 5695 5694 5694 5693 5693 5693 5692 5691 5691 5690 5690 5689 5689 5688 5687 5687 5686 5685 5684 5684 5684 5684 5684 5684 5684 5683 5682 5682
5691 5692 5694 5694 5694 5694 5694 5693 5692 5692 5691 5691 5690 5689 5689 5688 5688 5688 5687 5687 5687 5686 5685 5685 5684 5683 5683 5683 5682 5681 5681 5680 5679 5679 5678 5679 5679 5679 5679 5678 5678 5677 5676
5685 5686 5686 5687 5688 5688 5687 5686 5685 5685 5684 5684 5683 5683 5682 5682 5682 5682 5681 5681 5681 5680 5679 5679 5678 5677 5677 5676 5676 5675 5675 5674 5673 5673 5672 5672 5673 5673 5673 5672 5672 5671 5670
5678 5679 5679 5681 5681 5680 5680 5679 5678 5678 5677 5677 5677 5676 5676 5676 5675 5675 5675 5674 5674 5673 5673 5672 5671 5671 5670 5670 5669 5669 5668 5668 5667 5666 5666 5666 5666 5666 5666 5666 5665 5665 5664
5671 5672 5673 5674 5674 5673 5673 5673 5672 5671 5671 5671 5671 5670 5670 5670 5669 5668 5668 5667 5667 5667 5666 5665 5665 5664 5664 5664 5663 5662 5661 5661 5660 5659 5659 5658 5658 5658 5658 5658 5658 5658 5657
5665 5666 5666 5667 5667 5667 5666 5666 5665 5665 5665 5664 5664 5664 5664 5663 5662 5662 5661 5660 5660 5660 5659 5659 5658 5657 5657 5657 5656 5655 5655 5654 5653 5653 5652 5651 5651 5650 5650 5650 5650 5650 5650
5659 5659 5660 5660 5660 5660 5659 5659 5659 5658 5658 5658 5658 5657 5657 5657 5656 5655 5654 5653 5653 5653 5652 5651 5651 5650 5650 5649 5649 5648 5647 5647 5646 5645 5645 5644 5643 5642 5641 5641 5641 5641 5641
5652 5652 5653 5654 5653 5652 5652 5652 5652 5652 5651 5651 5651 5651 5650 5650 5649 5648 5647 5646 5646 5645 5645 5644 5643 5642 5641 5640 5640 5640 5639 5639 5638 5637 5637 5636 5635 5634 5633 5632 5632 5632 5632
5646 5646 5646 5647 5646 5646 5645 5645 5644 5644 5644 5644 5644 5644 5644 5643 5642 5641 5640 5639 5639 5638 5637 5636 5634 5633 5632 5632 5632 5632 5631 5630 5630 5629 5628 5627 5626 5625 5624 5623 5622 5622 5622
5639 5639 5639 5639 5639 5638 5637 5636 5636 5636 5636 5637 5637 5637 5637 5636 5635 5635 5633 5632 5631 5630 5629 5628 5626 5625 5623 5623 5623 5622 5622 5622 5622 5621 5619 5618 5617 5616 5615 5614 5612 5612 5611
5632 5632 5632 5632 5631 5631 5630 5628 5627 5627 5627 5628 5629 5630 5630 5629 5629 5628 5626 5625 5624 5622 5621 5620 5618 5616 5614 5613 5612 5612 5613 5614 5614 5612 5611 5610 5608 5607 5605 5604 5602 5601 5600
5625 5626 5626 5626 5625 5625 5624 5623 5622 5620 5620 5620 5621 5621 5621 5622 5621 5620 5619 5618 5616 5615 5613 5611 5610 5607 5605 5603 5601 5600 5601 5604 5605 5605 5602 5601 5599 5597 5595 5593 5591 5590 5589
5618 5619 5621 5619 5618 5617 5617 5615 5613 5612 5612 5611 5612 5612 5613 5613 5613 5612 5612 5610 5609 5607 5605 5603 5601 5599 5596 5593 5591 5589 5587 5589 5591 5595 5593 5592 5590 5587 5585 5583 5581 5579 5577
5612 5612 5613 5612 5611 5610 5609 5609 5607 5606 5604 5604 5603 5603 5604 5604 5604 5604 5603 5602 5600 5599 5597 5595 5593 5590 5587 5584 5582 5580 5577 5576 5575 5580 5582 5581 5579 5577 5575 5573 5570 5568 5566
5604 5605 5605 5604 5603 5602 5602 5602 5600 5598 5597 5595 5595 5595 5595 5595 5595 5595 5594 5593 5592 5590 5588 5586 5584 5581 5579 5576 5573 5571 5568 5565 5564 5563 5568 5570 5568 5567 5565 5562 5560 5557 5555
5593 5594 5595 5595 5594 5593 5593 5593 5592 5591 5588 5587 5586 5585 5585 5585 5585 5585 5584 5583 5582 5581 5579 5577 5575 5572 5570 5568 5565 5563 5560 5557 5555 5553 5554 5556 5556 5558 5555 5552 5549 5546 5544